This is the latest recevied weather packets stored in our database for station/object N4NVD-13. If no packets are shown the sender has not sent any weather packets the latest 10 day(s).
| Time | Temp. | Humidity | Pressure | Rain* | Wind** | Luminosity | Snow |
|---|---|---|---|---|---|---|---|
| 1777898263 | 15° C | 98% | 1014.6 hPa | 0 mm | - | 53 W/m² | - |
| 1777897960 | 15° C | 99% | 1014.5 hPa | 0 mm | - | 59 W/m² | - |
| 1777897656 | 14.44° C | 99% | 1014.9 hPa | 0 mm | - | 48 W/m² | - |
| 1777897352 | 13.89° C | 99% | 1014.6 hPa | 0 mm | - | 46 W/m² | - |
| 1777897048 | 13.33° C | 99% | 1014.4 hPa | 0 mm | - | 42 W/m² | - |
| 1777896745 | 12.78° C | 99% | 1014.3 hPa | 0 mm | - | 35 W/m² | - |
| 1777896442 | 12.22° C | 99% | 1014.4 hPa | 0 mm | - | 24 W/m² | - |
| 1777896134 | 12.22° C | 99% | 1014.4 hPa | 0 mm | - | 13 W/m² | - |
| 1777895832 | 11.67° C | 99% | 1014.4 hPa | 0 mm | - | 11 W/m² | - |
| 1777895529 | 11.67° C | 99% | 1014.4 hPa | 0 mm | - | 7 W/m² | - |
| 1777895226 | 11.67° C | 99% | 1014.2 hPa | 0 mm | - | 5 W/m² | - |
| 1777894923 | 11.67° C | 99% | 1014.5 hPa | 0 mm | - | 1 W/m² | - |
| 1777894621 | 11.67° C | 99% | 1014.1 hPa | 0 mm | - | 0 W/m² | - |
| 1777894318 | 11.67° C | 99% | 1014.3 hPa | 0 mm | - | 0 W/m² | - |
| 1777894015 | 11.67° C | 99% | 1014.3 hPa | 0 mm | - | 0 W/m² | - |
| 1777893711 | 12.22° C | 99% | 1014.4 hPa | 0 mm | - | 0 W/m² | - |
| 1777893408 | 12.22° C | 99% | 1014.4 hPa | 0 mm | - | 0 W/m² | - |
| 1777893103 | 12.22° C | 99% | 1014.5 hPa | 0 mm | - | 0 W/m² | - |
| 1777892801 | 12.22° C | 99% | 1014.3 hPa | 0 mm | - | 0 W/m² | - |
| 1777892497 | 12.22° C | 99% | 1014.2 hPa | 0 mm | - | 0 W/m² | - |
| 1777892192 | 11.67° C | 99% | 1014.5 hPa | 0 mm | - | 0 W/m² | - |
| 1777891890 | 12.22° C | 99% | 1014.3 hPa | 0 mm | - | 0 W/m² | - |
| 1777891587 | 12.22° C | 99% | 1014.1 hPa | 0 mm | - | 0 W/m² | - |
| 1777891283 | 12.22° C | 99% | 1014.6 hPa | 0 mm | - | 0 W/m² | - |
| 1777890978 | 12.22° C | 99% | 1014.5 hPa | 0 mm | - | 0 W/m² | - |
* Rain latest hour (hover to see other rain measurements)
** Current wind speed in m/s (hover to see current wind gust speed)